This is the latest recevied weather packets stored in our database for station/object W0CHP-13. If no packets are shown the sender has not sent any weather packets the latest 10 day(s).
| Time | Temp. | Humidity | Pressure | Rain* | Wind** | Luminosity | Snow |
|---|---|---|---|---|---|---|---|
| 1788389898 | 32.22° C | 52% | 1009.6 hPa | 0 mm | - | 136 W/m² | - |
| 1788389295 | 32.78° C | 53% | 1009.6 hPa | 0 mm | - | 163 W/m² | - |
| 1788388698 | 32.78° C | 53% | 1009.6 hPa | 0 mm | - | 194 W/m² | - |
| 1788388096 | 32.78° C | 53% | 1009.6 hPa | 0 mm | - | 225 W/m² | - |
| 1788387497 | 32.78° C | 52% | 1009.6 hPa | 0 mm | - | 253 W/m² | - |
| 1788386896 | 32.78° C | 52% | 1009.6 hPa | 0 mm | - | 282 W/m² | - |
| 1788386297 | 32.78° C | 53% | 1009.6 hPa | 0 mm | - | 314 W/m² | - |
| 1788385695 | 33.33° C | 53% | 1009.6 hPa | 0 mm | - | 339 W/m² | - |
| 1788385217 | 32.78° C | 54% | 1009.9 hPa | 0 mm | - | 364 W/m² | - |
| 1788384615 | 32.78° C | 53% | 1009.9 hPa | 0 mm | - | 392 W/m² | - |
| 1788384016 | 32.78° C | 54% | 1009.9 hPa | 0 mm | - | 417 W/m² | - |
| 1788383418 | 33.33° C | 53% | 1009.9 hPa | 0 mm | - | 445 W/m² | - |
| 1788382817 | 32.78° C | 52% | 1009.6 hPa | 0 mm | - | 470 W/m² | - |
| 1788382215 | 32.78° C | 53% | 1009.9 hPa | 0 mm | - | 498 W/m² | - |
| 1788381618 | 32.78° C | 53% | 1009.9 hPa | 0 mm | - | 518 W/m² | - |
| 1788381016 | 32.78° C | 53% | 1009.9 hPa | 0 mm | - | 545 W/m² | - |
| 1788380417 | 32.78° C | 54% | 1010.3 hPa | 0 mm | - | 565 W/m² | - |
| 1788379816 | 32.78° C | 53% | 1009.9 hPa | 0 mm | - | 581 W/m² | - |
| 1788379220 | 32.78° C | 52% | 1009.9 hPa | 0 mm | - | 602 W/m² | - |
| 1788378617 | 32.22° C | 55% | 1010.3 hPa | 0 mm | - | 621 W/m² | - |
| 1788378015 | 32.22° C | 55% | 1010.3 hPa | 0 mm | - | 636 W/m² | - |
| 1788377434 | 32.22° C | 54% | 1010.6 hPa | 0 mm | - | 650 W/m² | - |
| 1788376819 | 32.22° C | 57% | 1011 hPa | 0 mm | - | 663 W/m² | - |
| 1788376217 | 32.22° C | 55% | 1011.3 hPa | 0 mm | - | 685 W/m² | - |
| 1788375615 | 31.67° C | 58% | 1011 hPa | 0 mm | - | 691 W/m² | - |
* Rain latest 24 hours (hover to see other rain measurements)
** Current wind speed in m/s (hover to see current wind gust speed)